User: anonymous   Login
Location: Unspecified
(0.0000°N, 0.0000°E)
Time: 07:14:53
(UTC+00:00)
Language:

Explorer 11/Cluster Stage 4 - Orbit

View from above orbital plane
View from above orbital plane
View from above satellite
View from above satellite

Ground track
Ground track

The orbit data is extracted from the following two-line orbital elements,

1   107U 61013A   20299.94686045 +.00000483 +00000-0 +42318-4 0  9990
2   107 028.7885 164.4279 0546470 212.6580 143.9048 14.09036217984644
Epoch (UTC): 25 October 2020 22:43:28
Eccentricity: 0.0546470
inclination: 28.7885°
perigee height: 467 km
apogee height: 1258 km
right ascension of ascending node: 164.4279°
argument of perigee: 212.6580°
revolutions per day: 14.09036217
mean anomaly at epoch: 143.9048°
orbit number at epoch: 98464

The dashed part of the orbit path shows where the satellite is in the earth's shadow,  

DLR